Theta_e
342 344 347 350 353 355 354 354 354 354 354 355 355 354 353 352 352 350 348 350 348 350 352 355 355 351 348 347 342 339 336 332 330 327 324 323 322 323 324 324 324 324 324
334 334 337 344 348 351 352 354 353 354 354 354 353 354 354 354 353 353 351 350 348 348 351 354 356 353 350 348 344 340 337 332 330 327 323 322 322 322 322 324 323 325 324
334 335 335 337 339 346 352 352 353 355 354 353 352 352 351 351 351 351 352 351 351 347 351 353 355 355 352 350 347 342 338 333 331 327 323 321 321 321 322 322 323 322 322
333 334 334 335 339 346 346 349 350 351 351 351 350 350 348 350 349 350 351 351 351 351 352 353 353 355 353 351 349 346 340 334 331 326 323 321 320 321 322 323 322 322 322
330 330 329 331 335 339 343 342 344 346 348 349 348 348 348 348 348 346 349 351 352 353 353 352 352 352 352 352 351 348 343 334 329 325 321 319 319 319 321 321 321 320 321
328 328 327 328 330 331 334 337 342 343 344 346 346 343 347 347 346 345 347 349 351 353 354 354 354 353 350 351 351 350 347 333 327 324 320 319 319 320 321 320 319 321 321
327 328 325 326 327 327 329 331 334 339 340 344 342 340 342 344 341 339 340 340 344 345 349 350 353 358 352 348 348 349 337 332 328 323 318 317 319 319 319 320 320 320 319
329 327 327 325 326 324 325 326 329 330 333 341 337 335 327 333 337 337 339 340 341 343 345 347 349 350 350 347 339 337 334 332 328 322 318 317 318 318 319 319 319 319 319
328 327 326 326 325 324 320 323 325 325 324 331 336 335 324 322 333 337 338 339 337 338 339 342 343 340 336 336 336 334 334 330 325 320 318 318 318 318 317 318 318 318 318
327 327 326 326 326 324 323 321 322 324 324 321 328 335 336 336 326 323 334 337 336 333 329 327 330 330 332 333 334 332 327 323 321 318 318 316 317 317 317 317 317 318 318
325 326 326 325 324 323 324 321 321 321 321 321 321 324 325 330 331 330 325 330 330 326 325 323 322 322 324 325 323 324 320 317 317 318 317 317 316 316 316 316 317 317 317
322 325 325 325 325 323 321 319 320 320 319 320 320 322 322 324 325 326 327 330 328 321 320 321 319 318 318 318 321 318 316 315 315 315 314 314 313 313 313 313 314 315 316
321 323 325 324 322 322 320 320 319 319 318 317 319 317 320 322 327 328 328 326 324 318 316 318 317 317 318 317 315 315 316 314 313 312 312 310 310 310 310 311 311 312 313
321 325 324 324 322 320 318 318 316 315 317 317 318 318 317 320 323 326 328 325 318 316 314 313 315 316 316 315 315 315 312 313 311 310 309 308 308 308 308 308 309 309 310
321 322 323 322 320 318 317 317 313 315 316 316 317 317 317 318 322 324 330 331 327 317 313 312 310 315 314 315 314 313 312 312 311 309 308 307 307 307 307 306 306 307 307
321 321 320 319 317 316 315 315 313 314 314 314 314 315 317 318 321 325 330 330 330 328 320 314 313 313 313 312 313 312 311 311 310 308 307 306 305 305 306 305 306 306 306
317 316 316 315 313 313 313 313 313 312 312 313 314 315 316 320 320 323 326 329 326 328 324 313 313 313 310 309 311 312 311 311 309 308 307 306 305 304 305 305 304 304 304
314 313 313 312 311 311 312 311 311 311 310 310 312 313 315 317 320 323 325 329 324 328 321 311 310 309 307 309 310 309 310 308 308 307 306 305 304 304 304 304 303 302 302
310 311 310 309 308 309 309 311 310 310 310 310 311 313 314 317 318 319 327 327 326 325 321 310 308 308 307 308 307 309 308 307 308 307 305 304 304 304 304 303 303 302 301
306 307 307 307 308 308 309 309 309 309 309 310 312 313 313 315 319 322 324 325 322 319 314 310 308 305 305 307 306 304 304 307 304 305 304 303 304 304 303 303 303 302 301
307 307 306 307 307 307 307 309 309 308 308 309 311 311 314 317 317 320 325 324 320 316 311 308 305 303 303 303 303 306 302 304 305 306 306 306 305 304 302 302 303 302 300
305 306 306 305 305 306 304 303 306 306 307 307 309 311 313 314 315 315 316 317 320 315 311 309 305 302 303 304 306 303 303 300 302 310 307 305 305 303 301 302 300 300 299
304 304 304 304 304 307 301 300 302 305 306 308 309 311 314 317 316 320 316 314 313 313 314 313 307 304 304 305 305 304 304 307 307 308 308 303 305 301 302 303 300 299 298
303 304 303 303 303 304 300 299 300 305 307 307 308 310 313 315 320 321 317 316 317 317 317 316 310 308 310 308 306 306 309 311 310 308 310 302 303 302 305 304 300 299 298
302 302 303 302 303 304 300 298 300 303 304 306 310 314 314 315 312 307 318 316 315 314 311 310 308 305 302 302 306 311 309 306 304 305 309 304 304 302 303 302 300 299 298
301 302 302 305 303 304 301 299 300 303 305 308 312 314 308 315 303 304 320 314 309 309 308 306 304 303 304 304 305 315 310 307 306 305 309 307 306 305 303 302 299 298 300
Wind_Speed
4 4 4 4 4 5 6 6 6 6 7 8 8 9 9 8 9 7 7 10 15 18 21 21 21 22 22 21 20 17 15 12 10 7 4 2 2 4 5 5 6 7 7
3 4 4 4 4 4 5 6 7 6 6 7 8 8 8 7 8 9 7 8 13 16 19 21 22 22 22 22 21 19 16 14 12 8 5 3 3 2 3 5 6 8 9
5 4 4 4 4 5 6 6 6 7 7 7 8 8 7 7 7 9 8 8 8 16 17 19 21 21 22 22 23 22 20 17 14 10 6 3 4 4 4 5 6 8 8
7 4 4 5 7 5 5 5 6 6 7 7 7 7 7 6 7 8 8 7 8 8 13 19 21 21 21 23 24 25 23 20 17 12 7 4 3 4 6 5 7 8 9
6 6 6 6 8 6 5 5 5 6 7 7 7 7 6 6 6 6 8 7 8 8 7 14 20 21 22 24 24 23 24 21 16 11 6 2 3 2 5 6 6 8 10
5 3 4 6 7 7 7 8 7 5 7 8 7 7 6 6 5 6 6 6 7 8 9 10 10 14 22 23 24 24 23 18 15 9 5 5 4 4 6 6 8 8 9
4 4 4 5 5 6 7 9 9 8 7 4 6 7 6 5 5 4 4 4 6 6 7 8 8 7 11 22 21 18 23 19 14 9 4 3 5 5 6 9 9 10 10
1 1 3 4 4 3 5 7 8 7 6 6 5 5 6 4 4 4 3 3 5 5 6 6 9 9 6 3 11 22 20 19 14 11 7 5 5 6 6 7 10 10 11
4 3 1 3 3 3 4 4 5 6 6 7 7 5 5 7 2 4 4 2 3 4 3 5 4 3 5 7 13 15 19 20 16 8 9 5 3 5 6 7 9 10 11
7 6 3 0 1 2 3 3 3 4 5 8 8 2 7 8 7 8 4 3 1 2 4 4 3 3 3 4 13 18 18 17 14 10 9 2 6 8 6 8 10 10 11
9 9 7 5 3 2 2 3 4 5 4 6 7 7 7 5 7 8 9 4 1 2 3 3 4 5 7 7 8 15 20 17 13 12 11 11 8 8 10 10 11 11 11
8 9 9 7 5 4 3 4 5 5 6 7 7 8 9 6 3 5 7 7 5 2 3 3 4 5 7 8 15 20 18 17 12 12 11 9 7 6 8 10 10 12 12
9 10 11 9 7 5 3 4 6 7 7 7 8 8 8 9 9 8 7 7 5 1 2 3 4 5 6 8 10 17 18 17 16 11 12 8 6 6 8 9 11 11 12
10 10 10 10 8 6 5 5 6 7 9 8 10 10 10 10 9 9 9 7 4 3 1 3 2 4 6 8 13 20 11 16 15 12 10 7 7 9 10 12 11 11 12
10 11 11 10 9 7 6 6 7 9 10 10 10 11 10 10 8 8 9 10 10 5 4 5 3 6 7 8 12 9 9 15 14 12 12 8 9 11 12 11 12 12 12
11 10 10 10 9 8 8 7 7 8 10 10 10 12 12 11 10 10 8 8 9 9 4 3 3 9 10 8 13 10 11 14 14 12 10 11 10 13 12 12 14 14 14
14 12 12 12 11 10 9 9 10 11 12 12 13 13 15 14 10 9 8 7 9 8 6 3 3 10 13 13 11 9 9 9 7 10 11 11 12 12 13 14 15 14 13
15 13 13 12 13 13 12 12 13 12 13 14 13 14 15 11 13 12 10 8 8 7 5 9 11 10 13 12 11 10 8 7 5 10 11 12 14 13 12 16 13 13 15
13 12 12 14 15 14 14 13 14 14 14 14 13 14 14 14 12 9 11 8 6 5 8 8 9 10 10 11 11 8 9 6 5 11 10 11 15 13 16 15 14 15 14
11 14 13 14 15 15 14 14 14 14 14 14 14 14 14 15 15 13 10 8 7 8 9 9 11 11 12 11 9 9 8 5 5 6 7 8 10 14 15 14 15 14 14
14 14 14 14 13 13 12 14 13 13 14 14 14 14 13 16 19 15 10 7 10 9 10 12 11 10 11 12 12 8 7 6 5 3 4 4 5 7 8 11 11 16 17
14 15 15 15 15 12 11 11 14 14 15 15 15 14 12 17 18 20 17 11 15 14 13 10 11 14 15 13 11 10 8 6 6 4 4 7 5 6 6 6 15 19 19
11 12 12 13 13 13 10 13 16 14 15 15 14 14 13 12 14 14 12 19 17 21 23 18 17 17 17 15 14 12 12 9 7 7 6 8 4 7 4 8 18 19 18
11 10 10 11 12 13 11 14 18 16 13 14 14 15 14 14 12 9 9 11 13 13 13 11 15 15 14 15 13 11 13 9 9 6 5 8 4 7 5 8 18 16 15
10 9 10 12 14 16 15 15 15 11 11 15 16 14 13 12 11 12 13 12 12 10 7 12 14 18 20 22 15 12 11 10 9 7 3 7 4 7 8 10 7 11 15
10 10 12 14 15 16 15 15 14 9 12 10 10 13 17 14 15 16 12 12 11 12 15 15 15 19 21 15 16 11 10 9 8 6 6 2 4 4 5 8 6 7 7
Wind_Direction
10 337 330 297 285 268 256 255 253 252 258 258 257 259 266 262 260 256 263 227 231 225 227 225 219 216 210 201 199 197 201 199 197 201 217 241 296 327 338 347 347 342 336
42 22 6 342 307 295 278 267 264 259 255 261 261 256 261 266 256 256 253 258 224 232 228 228 224 217 214 207 199 200 197 202 200 200 208 259 296 322 326 339 344 339 345
31 12 9 344 340 322 296 275 264 260 254 251 258 257 254 258 261 263 253 251 243 220 224 221 222 218 217 213 204 199 197 197 196 196 202 236 267 299 320 337 342 333 333
23 14 15 5 349 332 338 314 295 272 260 254 251 253 261 261 268 270 266 261 248 252 206 219 218 218 211 219 216 203 200 192 187 188 182 226 277 316 320 339 336 338 332
43 27 18 10 355 347 348 331 300 278 280 267 256 256 255 258 268 281 274 262 265 256 248 203 215 217 209 213 221 220 204 187 180 166 178 230 274 303 309 321 339 330 331
80 57 51 21 2 1 358 350 326 297 283 288 291 283 266 266 271 285 288 289 272 265 255 254 220 222 217 214 220 220 202 173 145 167 125 269 302 344 324 337 328 337 343
56 53 59 46 26 23 11 355 342 331 304 296 276 262 263 254 268 264 272 279 271 279 270 257 253 251 226 229 222 232 149 153 148 136 115 274 339 348 341 339 342 346 338
294 88 59 55 45 36 30 14 5 339 311 332 292 285 276 216 227 241 253 275 287 287 272 252 243 254 270 258 143 152 146 149 151 139 142 46 357 340 353 350 340 338 339
257 266 56 64 53 6 30 23 10 360 325 315 316 305 270 262 299 177 212 246 309 318 330 309 261 174 151 146 152 156 152 140 123 128 102 58 349 324 357 352 338 337 338
243 235 225 193 36 5 20 26 21 346 323 311 320 303 295 295 285 272 204 208 264 345 19 17 13 58 106 144 145 129 119 114 109 110 100 97 30 1 359 354 349 342 349
235 225 213 205 213 265 332 350 353 345 320 310 307 304 312 284 286 281 276 199 245 52 51 56 78 71 69 74 94 111 110 103 103 83 74 59 28 359 353 356 355 350 347
238 228 221 212 213 219 270 322 333 326 317 302 298 293 286 277 311 267 272 280 275 79 61 86 81 86 96 103 106 107 107 109 92 89 78 68 42 17 357 2 354 348 351
254 231 218 214 213 219 250 305 315 313 310 301 293 290 287 278 273 264 275 279 254 140 111 76 105 118 113 110 117 120 117 105 106 90 77 61 33 33 22 8 3 356 356
268 243 216 214 215 229 255 290 297 302 305 297 292 285 281 275 272 265 259 246 240 176 146 123 98 122 123 119 135 120 121 109 107 101 93 76 55 41 36 26 6 359 6
274 253 233 219 214 227 258 278 286 294 298 291 289 283 277 271 264 261 264 247 255 228 187 159 138 150 126 130 125 121 119 121 114 100 84 72 50 44 42 29 18 9 3
262 253 237 236 242 258 268 273 273 269 277 283 287 286 278 271 260 253 257 246 241 250 222 154 140 149 134 125 137 128 125 120 108 102 89 71 51 46 36 33 27 15 8
259 245 251 258 266 274 272 269 271 275 273 277 279 278 274 270 263 264 253 244 239 220 218 108 103 146 137 137 136 127 117 118 109 108 85 63 49 43 32 30 26 15 4
263 260 257 261 272 276 273 269 272 275 274 278 277 274 273 270 265 260 251 246 234 212 147 143 147 148 138 138 135 130 131 125 117 102 87 63 47 45 36 34 23 18 14
268 257 261 268 270 269 267 260 260 266 270 272 271 267 267 265 259 254 247 252 213 173 149 149 141 140 134 143 134 134 135 126 120 109 98 76 56 39 40 30 24 25 16
264 267 264 263 263 266 262 258 256 260 267 268 264 261 260 257 256 253 248 233 174 152 140 144 144 142 142 143 144 142 146 143 136 114 84 75 60 51 36 30 25 26 24
266 264 265 261 260 258 253 251 253 262 270 269 263 259 256 253 258 263 254 202 172 150 150 147 142 145 150 153 165 155 147 137 132 141 94 69 53 55 35 25 21 29 28
273 271 265 261 262 253 245 229 247 268 273 265 261 258 244 248 253 245 240 217 179 159 156 156 154 155 162 158 153 156 146 139 161 177 121 81 64 60 49 27 31 33 29
264 257 257 266 263 260 236 237 241 259 264 258 259 252 248 246 235 253 232 197 176 170 168 161 163 162 168 164 152 148 150 178 125 134 121 84 73 73 57 55 42 36 29
262 259 257 250 254 255 242 236 241 259 259 257 249 245 244 248 238 233 157 163 166 172 167 165 165 159 155 147 142 144 161 118 120 129 131 95 79 73 66 63 47 35 29
258 257 259 261 262 266 251 239 244 250 245 243 240 239 230 230 225 172 161 170 161 154 120 131 135 133 129 130 140 153 151 149 143 133 153 116 142 90 67 58 39 20 30
258 261 261 258 267 267 262 247 238 242 242 243 244 240 221 217 175 169 162 149 143 144 124 111 112 109 124 125 138 152 153 145 133 146 122 162 151 206 95 65 42 24 29